Flag for U.S.A. Weather past 2 weeks in Stamford, Connecticut, U.S.A.

Now
68 °F

Clear.


Feels Like: 68 °F
Forecast: 66 / 83 °F
Wind: No wind

Location: Westchester County Airport

Current Time: Jul 6, 2015 at 12:01:15 AM

Latest Report: Jul 5, 2015 at 10:56 PM


Visibility: 10 mi

Pressure: 30.14 "Hg

Humidity: 87%

Dew point: 64 °F

Location of StamfordLocation

Historic Weather in Stamford — Graph

°F

Stamford temperature yesterday

Maximum temperature yesterday: 82 °F (at 3:56 PM)
Minimum temperature yesterday: 61 °F (at 2:56 AM)
Average temperature yesterday: 72 °F

Past Weeks' High & Low Weather Summary

 TemperatureHumidityPressure
High87 °F (Jun 23, 11:56 AM)100% (Jun 29, 1:04 AM)30.13 "Hg (Jun 29, 1:04 AM)
Low56 °F (Jun 27, 10:56 PM)33% (Jul 3, 3:56 PM)29.65 "Hg (Jun 28, 10:56 AM)
Average71 °F71%29.91 "Hg
* Reported Jun 20 9:56 PM — Jul 5 9:56 PM, Stamford, Weather by CustomWeather, © 2015

Note: Actual official high and low records may vary slightly from our data, if they occured in-between our weather recording intervals... More about our weather records

Advertising

Stamford weather history for previous 24 hours

 ConditionsComfort  
Time TempWeatherWind HumidityBarometerVisibility
9:56 PM
Sun, Jul 5
69 °FClear.No wind81%30.13 "Hg10 mi
8:56 PM72 °FSunny.5 mph73%30.11 "Hg10 mi
7:56 PM75 °FSunny.7 mph66%30.10 "Hg10 mi
6:56 PM78 °FPassing clouds.7 mph60%30.09 "Hg10 mi
5:56 PM82 °FPassing clouds.3 mph48%30.09 "Hg10 mi
4:56 PM82 °FPassing clouds.3 mph48%30.09 "Hg10 mi
3:56 PM82 °FPassing clouds.6 mph44%30.09 "Hg10 mi
2:56 PM81 °FPassing clouds.7 mph54%30.10 "Hg10 mi
1:56 PM80 °FScattered clouds.3 mph54%30.11 "Hg10 mi
12:56 PM78 °FPassing clouds.5 mph58%30.11 "Hg10 mi
11:56 AM77 °FPassing clouds.No wind60%30.11 "Hg10 mi
10:56 AM74 °FPassing clouds.3 mph69%30.12 "Hg10 mi
9:56 AM73 °FPassing clouds.6 mph69%30.11 "Hg10 mi
8:56 AM70 °FSunny.5 mph76%30.11 "Hg8 mi
7:56 AM67 °FSunny.6 mph81%30.09 "Hg7 mi
6:56 AM64 °FFog.3 mph90%30.07 "Hg4 mi
5:56 AM62 °FFog.3 mph93%30.05 "Hg2 mi
4:56 AM61 °FFog.3 mph90%30.04 "Hg4 mi
3:56 AM61 °FFog.No wind93%30.03 "Hg6 mi
2:56 AM61 °FClear.3 mph90%30.03 "Hg7 mi
1:56 AM62 °FFog.No wind93%30.03 "Hg5 mi
12:56 AM63 °FFog.3 mph87%30.03 "Hg6 mi
Weather by CustomWeather, © 2015

See weather overviewHow to use our weather pages